Regional Weather Roundup
Issued by NWS

Home | Current Version | Previous Version | Graphics & Text | Print | Product List | Glossary On
Versions: 1 2 3 4 5 6 7 8 9 10 11 12 13 14 15 16 17 18 19 20 21 22 23 24 25 26 27 28 29 30 31 32 33 34 35 36 37 38 39 40 41 42 43 44 45 46 47 48 49 50
375
ASUS43 KLSX 231559
RWRMO

WEATHER SUMMARY FOR MISSOURI
NATIONAL WEATHER SERVICE SPRINGFIELD MO
1100 AM CDT FRI JUN 23 2017

NOTE: "FAIR" INDICATES FEW OR NO CLOUDS BELOW 12,000 FEET WITH NO
       SIGNIFICANT WEATHER AND/OR OBSTRUCTIONS TO VISIBILITY.
       CURRENT SKY AND/OR WEATHER CONDITIONS ARE NOT AVAILABLE FOR
       CHILLICOTHE AND FARMINGTON.

MOZ001>031-035>038-043-044-053-054-231700-
...NORTHERN AND WESTERN MISSOURI...

CITY           SKY/WX    TMP DP  RH WIND       PRES   REMARKS
KANSAS CTY INT PTSUNNY   80  59  48 N17       29.90R
KANSAS C DTWN  PTSUNNY   82  61  48 N10       29.88R
LEE`S SUMMIT   CLOUDY    79  62  56 N16       29.88R
ST JOSEPH      SUNNY     77  62  59 N10       29.91S
CHILLICOTHE      N/A     79  64  60 MISG      29.88R
KIRKSVILLE     SUNNY     77  62  59 N10       29.84R

$$
MOZ066>068-077>081-088>096-101>105-231700-
...SOUTHWEST MISSOURI...

CITY           SKY/WX    TMP DP  RH WIND       PRES   REMARKS
SPRINGFIELD    PTSUNNY   82  74  76 NW9       29.78F
JOPLIN         LGT RAIN  81  76  84 NW12      29.81R
BRANSON        PTSUNNY   82  73  74 W5        29.83R

$$
MOZ032>034-039>042-045>050-055>058-069>072-231700-
...CENTRAL MISSOURI...

CITY           SKY/WX    TMP DP  RH WIND       PRES   REMARKS
COLUMBIA       PTSUNNY   77  70  79 N18G24    29.80R
JEFFERSON CITY PTSUNNY   78  67  68 N10       29.77S
ROLLA          CLOUDY    75  69  81 N14       29.78R
SEDALIA        CLOUDY    77  69  76 N16       29.85R
WARRENSBURG    PTSUNNY   75  66  73 N9        29.86R
OSAGE BEACH    CLOUDY    74  71  91 N6        29.79R

$$
MOZ051-052-059>065-231700-
...EAST CENTRAL MISSOURI...

CITY           SKY/WX    TMP DP  RH WIND       PRES   REMARKS
ST LOUIS INTL  CLOUDY    82  70  66 NW15G21   29.73R
SPIRIT OF STL  PTSUNNY   81  71  71 NW9       29.72S
ST CHARLES     CLOUDY    81  71  71 NW9       29.70S

$$
MOZ072>076-082>087-097>100-106>115-231700-
...SOUTH CENTRAL AND SOUTHEAST MISSOURI...

CITY           SKY/WX    TMP DP  RH WIND       PRES   REMARKS
CAPE GIRARDEAU CLOUDY    76  73  91 E8        29.67F
FARMINGTON     CLOUDY    81  74  79 CALM      29.72F
POPLAR BLUFF   CLOUDY    79  75  87 N6        29.68R
WEST PLAINS    MOSUNNY   84  71  65 N12       29.77R

$$




USA.gov is the U.S. government's official web portal to all federal, state and local government web resources and services.